Location: Clatteringshaws Loch
(55.0508°N, 4.2860°W)
Time: 23:37:29
(UTC+00:00)

ALOS - Visible Passes

Search period start: 31 October 2014 00:00
Search period end: 10 November 2014 00:00
Orbit: 687 x 690 km, 98.0° (Epoch: 30 October)

Date Brightness Start Highest point End Pass type
(mag) Time Alt. Az. Time Alt. Az. Time Alt. Az.
31 Oct 4.3 18:54:25 13° NNE 18:54:25 13° NNE 18:55:36 10° NNE visible
31 Oct 4.5 20:33:01 19° N 20:33:01 19° N 20:34:19 10° NNW visible
01 Nov 4.3 19:33:26 17° NNE 19:33:26 17° NNE 19:34:49 10° N visible
01 Nov 5.0 21:12:02 14° NNW 21:12:02 14° NNW 21:12:47 10° NNW visible
02 Nov 4.5 18:33:51 11° NNE 18:33:51 11° NNE 18:34:12 10° NNE visible
02 Nov 4.4 20:12:27 18° N 20:12:27 18° N 20:13:39 10° N visible
03 Nov 4.4 19:12:52 14° NNE 19:12:52 14° NNE 19:13:56 10° N visible
03 Nov 4.9 20:51:28 15° NNW 20:51:28 15° NNW 20:52:15 10° NNW visible
04 Nov 4.5 19:51:52 16° N 19:51:52 16° N 19:52:55 10° N visible
04 Nov 5.3 21:30:28 11° NNW 21:30:28 11° NNW 21:30:34 10° NNW visible
05 Nov 4.5 18:52:16 12° NNE 18:52:16 12° NNE 18:52:51 10° NNE visible
05 Nov 4.8 20:30:52 15° N 20:30:52 15° N 20:31:38 10° NNW visible
06 Nov 4.5 19:31:15 14° N 19:31:15 14° N 19:32:06 10° N visible
06 Nov 5.2 21:09:51 11° NNW 21:09:51 11° NNW 21:10:06 10° NNW visible
07 Nov 4.7 20:10:14 14° N 20:10:14 14° N 20:10:56 10° N visible
08 Nov 4.6 19:10:37 12° NNE 19:10:37 12° NNE 19:11:09 10° N visible
08 Nov 5.1 20:49:13 12° NNW 20:49:13 12° NNW 20:49:31 10° NNW visible
09 Nov 4.7 19:49:36 13° N 19:49:36 13° N 19:50:09 10° N visible
